Regional Weather Roundup
Issued by NWS

Home | Current Version | Previous Version | Graphics & Text | Print | Product List | Glossary On
Versions: 1 2 3 4 5 6 7 8 9 10 11 12 13 14 15 16 17 18 19 20 21 22 23 24 25 26 27 28 29 30 31 32 33 34 35 36 37 38 39 40 41 42 43 44 45 46 47 48 49 50
000
ASUS45 KBOU 300207
RWRCO

WEATHER ROUNDUP FOR COLORADO
NATIONAL WEATHER SERVICE DENVER/BOULDER CO
800 PM MDT SAT AUG 29 2015

NOTE: "FAIR" INDICATES FEW OR NO CLOUDS BELOW 12000 FEET WITH NO
SIGNIFICANT WEATHER AND/OR OBSTRUCTIONS TO VISIBILITY.

COZ001>005-013-030-031-300300-
...NORTHWEST COLORADO...

CITY           SKY/WX    TMP DP  RH WIND       PRES   REMARKS
CRAIG          PTCLDY    68  43  40 S9        30.15F
HAYDEN         NOT AVBL
MEEKER         PTCLDY    71  41  33 CALM      30.17F
MOUNT WERNER   NOT AVBL
STEAMBOAT SPGS PTCLDY    69  39  32 E3        30.21F
WALDEN         CLEAR     64  32  29 W6        30.33S
$$

COZ006>008-011-300300-
...WEST CENTRAL VALLEYS...

CITY           SKY/WX    TMP DP  RH WIND       PRES   REMARKS
GRAND JUNCTION PTCLDY    82  39  21 S5        30.04F
MONTROSE       CLEAR     77  44  30 S6        30.15S
EAGLE          PTCLDY    79  39  24 S6        30.22S
RIFLE          PTCLDY    79  40  24 S7        30.11S
DELTA          CLEAR     82  42  23 E3        30.09S
NUCLA          CLEAR     81  28  15 SW5       30.19S
$$

COZ017>023-064>068-300300-
...SOUTHWEST COLORADO...

CITY           SKY/WX    TMP DP  RH WIND       PRES   REMARKS
DURANGO        CLEAR     75  42  30 N7        30.23F
CORTEZ         CLEAR     71  45  39 S5        30.16S
PAGOSA SPRINGS CLEAR     70  38  30 CALM      30.33S
TELLURIDE      PTCLDY    65  41  41 CALM      30.46R
WOLF CREEK PAS PTCLDY    52  34  50 SW13      30.69S
$$

COZ009-010-012-014-032>034-037-058>063-300300-
...CENTRAL COLORADO...

CITY           SKY/WX    TMP DP  RH WIND       PRES   REMARKS
ASPEN          PTCLDY    64  46  52 S7        30.32R
BUENA VISTA    MOCLDY    72  38  30 S10       30.33R
COPPER MTN     CLOUDY    59  34  38 W17       30.67S
BERTHOUD PASS  FAIR      48  36  61 E9        30.72S
COTTONWOOD PAS CLOUDY    68  32  26 S7        30.48S
GUNNISON       PTCLDY    70  37  30 NW7       30.33S
KREMMLING      CLEAR     70  32  24 CALM      30.28R
LEADVILLE      MOCLDY    62  35  36 N7        30.48R
MONARCH PASS   PTCLDY    54  34  47 SW13      30.76F
SALIDA         PTCLDY    74  41  30 SE9       30.36R
SUNLIGHT       CLEAR     55  37  50 CALM      30.59S
WILKERSON PASS PTCLDY    54  36  50 S9G18     30.62S
$$

COZ069>075-300300-
...SAN LUIS VALLEY/SANGRE DE CRISTO MOUNTAINS...

CITY           SKY/WX    TMP DP  RH WIND       PRES   REMARKS
ALAMOSA        PTCLDY    66  43  43 S16       30.31S
LA VETA PASS   CLOUDY    57  36  44 MISG      30.54S
SAGUACHE       PTCLDY    68  41  37 CALM      30.34R
$$

COZ035-036-038>040-300300-
...NORTHERN COLORADO FRONT RANGE...

CITY           SKY/WX    TMP DP  RH WIND       PRES   REMARKS
DENVER INTL AP PTCLDY    79  42  26 S16       30.12S
DMNS CITY PARK   N/A     80  41  24 SE15G21   30.11S
AURORA         PTCLDY    77  43  29 SE13      30.15S
FRONT RANGE AP PTCLDY    77  41  27 SE12      30.15S
ERIE MUNI ARPT CLEAR     82  42  24 S5        30.09R
BOULDER MUN AP CLEAR     79  45  29 CALM      30.10R
CENTENNIAL     PTCLDY    77  43  29 SE14      30.17S
BROOMFIELD     PTCLDY    81  43  26 S12G20    30.14S
FORT COLLINS   CLEAR     77  45  31 E8        30.07R
LONGMONT       CLEAR     74  53  48 W5        30.10R
$$

COZ041-046-047-076>085-087-088-300300-
...PIKES PEAK/PALMER DIVIDE AND SOUTHERN FOOTHILLS...

CITY           SKY/WX    TMP DP  RH WIND       PRES   REMARKS
COLO. SPRINGS  PTCLDY    72  40  31 SE9       30.24R
A. F. ACADEMY  PTCLDY    72  40  31 S9        30.26R
ELLICOTT       CLEAR    N/A N/A N/A SE10      30.23S
FALCON         CLEAR     65  42  43 MISG      30.30R
FORT CARSON    CLEAR     71  43  35 SE6       30.21R
LIMON          CLEAR     64  42  44 SE5       30.20R
MONUMENT HILL  CLEAR     66  39  37 S15       30.29R
TRINIDAD       CLEAR     75  46  35 S10       30.23R
$$

COZ042>045-048>051-090-091-300300-
...NORTHEAST COLORADO...

CITY           SKY/WX    TMP DP  RH WIND       PRES   REMARKS
GREELEY ARPT   CLEAR     73  48  40 E9        30.08R
AKRON          CLEAR     75  46  35 SE12      30.12R
BURLINGTON     CLEAR     68  46  45 S9        30.14R
WRAY           MOCLDY    79  40  25 SE8       30.08R
STERLING       CLEAR     73  48  40 S7        30.05R
HOLYOKE        CLEAR     73  54  49 S9        30.07S
FORT MORGAN    CLEAR     77  42  28 SE8       30.10R
$$

COZ086-089-092>099-300300-
...SOUTHEAST COLORADO...

CITY           SKY/WX    TMP DP  RH WIND       PRES   REMARKS
PUEBLO         CLEAR     80  42  25 E9        30.11R
LA JUNTA       CLEAR     79  38  22 SE10      30.12R
LAMAR          CLEAR     75  44  33 SE12      30.09R
SPRINGFIELD    NOT AVBL
$$



USA.gov is the U.S. government's official web portal to all federal, state and local government web resources and services.